Location: Dumpton Point
(51.3500°N, 1.4433°E)
Time: 15:41:30
(UTC+00:00)

Tiros 1 despin weight - Visible Passes

Search period start: 19 April 2021 00:00
Search period end: 29 April 2021 00:00
Orbit: 593 x 641 km, 48.2° (Epoch: 18 April)

Date Brightness Start Highest point End Pass type
(mag) Time Alt. Az. Time Alt. Az. Time Alt. Az.
21 Apr ? 04:04:04 10° S 04:06:43 15° SE 04:09:21 10° ESE visible
23 Apr ? 02:56:46 10° SSE 02:58:07 11° SE 02:59:29 10° ESE visible
24 Apr ? 03:10:55 10° S 03:14:00 18° SE 03:17:10 10° E visible
25 Apr ? 03:26:24 12° SSW 03:30:00 27° SSE 03:33:53 10° E visible
26 Apr ? 02:04:47 14° SSE 02:05:22 14° SE 02:07:46 10° ESE visible
26 Apr ? 03:41:49 10° SW 03:46:05 38° SSE 03:50:20 10° E visible
27 Apr ? 02:20:10 20° SSE 02:21:18 22° SSE 02:24:50 10° E visible
28 Apr ? 02:35:29 24° SSW 02:37:19 32° SSE 02:41:24 10° E visible
